Other Surface Observations
Issued by NWS

Home | Current Version | Previous Version | Text Only | Print | Product List | Glossary On
Versions: 1 2 3 4 5 6 7 8 9 10 11 12 13 14 15 16 17 18 19 20 21 22 23 24 25 26 27 28 29 30 31 32 33 34 35 36 37 38 39 40 41 42 43 44 45 46 47 48 49 50
000
SXUS52 KTAE 280818
OSOTAE
OSOTAE
North Florida/South Alabama/Southwest Georgia Weather Roundup
National Weather Service Tallahassee Florida
400 AM EDT SUN AUG 28 2016

Note: "fair" indicates few or no clouds below 12,000 feet with no
significant weather and/or obstructions to visibility.

!FLZ017-115-028-034-025-280900
...North Florida...

CITY           SKY/WX    TMP DP  RH WIND       PRES   REMARKS
TALLAHASSEE    CLEAR     79  75  87 E7        29.99S
APALACHICOLA   CLEAR     78  78 100 NE9       29.96S
PERRY          PTCLDY    77  75  91 E5        29.99F
CROSS CITY     CLEAR     75  73  94 NE5       29.98S
JACKSONVILLE   PTCLDY    77  77 100 E6        30.00S
$$

!FLZ112-006-005-002-011-280900
...Florida Panhandle...

CITY           SKY/WX    TMP DP  RH WIND       PRES   REMARKS
MARIANNA       CLEAR     75  74  96 NE5       30.00R
BONIFAY        FAIR      76  72  87 NE5       30.01S
PANAMA CITY NW FAIR      77  72  84 N7        29.97S
TYNDALL AFB    CLEAR     78  74  87 NE6       29.97S
TYND DRONE APT FAIR      77  75  92 NE7       29.97S
DE FUNIAK SPR  FAIR      77  71  82 E6        30.00F
EGLIN AFB      PTCLDY    80  71  73 NE7       29.98S
DESTIN         CLOUDY    83  75  77 E7        29.97F HX  90
HURLBURT       CLOUDY    78  72  80 NE7       29.96F
CRESTVIEW      CLOUDY    77  71  82 CALM      30.00F
PENSACOLA      CLOUDY    79  75  87 N6        29.97F
$$

!ALZ063-066-280900
...South Alabama...

CITY           SKY/WX    TMP DP  RH WIND       PRES   REMARKS
DOTHAN         CLEAR     75  73  93 E5        30.06S
OZARK CAIRNS   CLOUDY    76  73  90 NE5       30.01F
FT RUCKER HELI CLOUDY    77  71  82 CALM      30.01S
RUCKER HELI 3  NOT AVBL
RUCKER HELI 2  FAIR      79  72  79 E6        30.01F
FLORALA APT    CLEAR     74  69  85 N6        30.02F
ANDALUSIA      CLEAR     78  69  73 CALM      30.01S
TROY           CLOUDY    73  71  93 CALM      30.04F
EUFALA         FAIR      72  70  93 CALM      30.04R
MOBILE         CLEAR     74  72  93 CALM      29.99F
$$

!GAZ120>161-280900
...Southwest and South Central Georgia...

CITY           SKY/WX    TMP DP  RH WIND       PRES   REMARKS
THOMASVILLE    FAIR      77  77 100 E5        30.03S
BAINBRIDGE     CLEAR     77  72  83 CALM      30.01S
MOODY AFB      CLEAR     75  73  92 NE5       30.01S
VALDOSTA       CLEAR     76  76 100 E3        30.01F
MOULTRIE       CLEAR     77  72  83 CALM      30.03S
BLAKELY        CLEAR     75  72  88 CALM      30.03S
ALBANY         CLEAR     76  71  85 E5        30.05S
TIFTON         FAIR      75  75 100 E5        30.04S
FITZGERALD       N/A     78  77  99 CALM      30.07S
CORDELE        FAIR      75  73  91 NE3       30.06S
AMERICUS       FAIR      70  70 100 CALM      30.08R
HOMERVILLE     FAIR      75  75 100 NE5       30.03S
$$

!GMZ750-755-770-775-280900
...Coastal and Buoy Obs...

STATION/POSITION TIME  TEMP    WIND        PRES    VSBY  WAVE
                       AIR SEA DIR/SP/G                  HT/PER
                 (UTC) (F)     (DEG/KT/KT) (MB)    (MI)  (FT/S)
KEATON BEACH     0800   76      70/  8/  9 1014.9F
CEDAR KEY        0800   80      60/ 14/ 16 1015.2S
C TOWER          0800   83     100/ 12/ 13 1014.9R
APALACHICOLA BUO 0750   85 85   90/ 10/ 12 1013.8F         2/ 5
PANAMA CITY BUOY 0750   83 85   80/  6/  8 1014.2F         2/ 5
MOBILE BUOY      0800   84 85   90/ 12/ 16 1013.8R
ORANGE BCH AL BU 0750   82 85   40/ 10/ 12 1014.4F         2/ 6
$$




USA.gov is the U.S. government's official web portal to all federal, state and local government web resources and services.